Meteo pe oră la Dabkow

Astăzi, 11 Aprilie, Duminică

Timp Temperatura Precipitaţii Vânt Presiune Umiditate
00:00 +5°C° 0 mm 3 m/s 746 mmHg 74%
01:00 +5°C° 0 mm 3 m/s 746 mmHg 75%
02:00 +5°C° 0 mm 3 m/s 747 mmHg 76%
03:00 +4°C° 0 mm 3 m/s 747 mmHg 76%
04:00 +4°C° 0 mm 3 m/s 747 mmHg 77%
05:00 +4°C° 0 mm 3 m/s 747 mmHg 77%
06:00 +5°C° 0 mm 4 m/s 747 mmHg 74%
07:00 +6°C° 0 mm 4 m/s 747 mmHg 71%
08:00 +7°C° 0 mm 4 m/s 747 mmHg 67%
09:00 +10°C° 0 mm 4 m/s 747 mmHg 61%
10:00 +12°C° 0 mm 5 m/s 747 mmHg 55%
11:00 +14°C° 0 mm 5 m/s 747 mmHg 48%
12:00 +15°C° 0 mm 5 m/s 747 mmHg 46%
13:00 +16°C° 0 mm 5 m/s 747 mmHg 43%
14:00 +17°C° 0 mm 5 m/s 746 mmHg 41%
15:00 +17°C° 0 mm 5 m/s 746 mmHg 44%
16:00 +17°C° 0 mm 4 m/s 746 mmHg 47%
17:00 +17°C° 0 mm 4 m/s 745 mmHg 50%
18:00 +15°C° 0 mm 4 m/s 746 mmHg 54%
19:00 +13°C° 0 mm 4 m/s 746 mmHg 58%
20:00 +11°C° 0 mm 4 m/s 746 mmHg 62%
21:00 +11°C° 0 mm 4 m/s 746 mmHg 62%
22:00 +10°C° 0 mm 4 m/s 746 mmHg 62%
23:00 +10°C° 0 mm 4 m/s 746 mmHg 62%

Mâine, 12 Aprilie, Luni

Timp Temperatura Precipitaţii Vânt Presiune Umiditate
00:00 +8°C° 0 mm 4 m/s 746 mmHg 64%
01:00 +9°C° 0 mm 3 m/s 746 mmHg 66%
02:00 +8°C° 0 mm 3 m/s 746 mmHg 68%
03:00 +9°C° 0 mm 3 m/s 746 mmHg 72%
04:00 +9°C° 0 mm 3 m/s 745 mmHg 76%
05:00 +8°C° 0 mm 4 m/s 745 mmHg 80%
06:00 +8°C° 0.1 mm 4 m/s 745 mmHg 79%
07:00 +10°C° 0.1 mm 4 m/s 745 mmHg 78%
08:00 +10°C° 0.1 mm 5 m/s 745 mmHg 78%
09:00 +12°C° 0 mm 5 m/s 745 mmHg 70%
10:00 +13°C° 0 mm 5 m/s 745 mmHg 63%
11:00 +15°C° 0 mm 6 m/s 744 mmHg 55%
12:00 +15°C° 0 mm 5 m/s 744 mmHg 55%
13:00 +15°C° 0 mm 5 m/s 744 mmHg 54%
14:00 +15°C° 0 mm 5 m/s 744 mmHg 54%
15:00 +15°C° 0 mm 4 m/s 744 mmHg 57%
16:00 +14°C° 0 mm 4 m/s 743 mmHg 60%
17:00 +14°C° 0 mm 4 m/s 743 mmHg 63%
18:00 +13°C° 0 mm 3 m/s 744 mmHg 67%
19:00 +13°C° 0 mm 2 m/s 744 mmHg 70%
20:00 +13°C° 0 mm 2 m/s 744 mmHg 74%
21:00 +12°C° 0 mm 1 m/s 744 mmHg 76%
22:00 +12°C° 0 mm 1 m/s 744 mmHg 78%
23:00 +11°C° 0 mm 1 m/s 744 mmHg 80%

Poimâine, 13 Aprilie, Marţi

Timp Temperatura Precipitaţii Vânt Presiune Umiditate
00:00 +11°C° 0.1 mm 1 m/s 744 mmHg 81%
01:00 +10°C° 0.1 mm 0 m/s 744 mmHg 83%
02:00 +10°C° 0.1 mm 0 m/s 744 mmHg 84%
03:00 +11°C° 0 mm 1 m/s 744 mmHg 85%
04:00 +10°C° 0 mm 1 m/s 743 mmHg 86%
05:00 +10°C° 0 mm 1 m/s 743 mmHg 87%
06:00 +9°C° 0 mm 2 m/s 743 mmHg 86%
07:00 +10°C° 0 mm 2 m/s 743 mmHg 85%
08:00 +10°C° 0 mm 2 m/s 743 mmHg 84%
09:00 +10°C° 0.3 mm 2 m/s 743 mmHg 85%
10:00 +10°C° 0.3 mm 3 m/s 743 mmHg 86%
11:00 +10°C° 0.3 mm 3 m/s 743 mmHg 87%
12:00 +8°C° 1 mm 4 m/s 744 mmHg 89%
13:00 +7°C° 1 mm 4 m/s 744 mmHg 92%
14:00 +5°C° 1 mm 5 m/s 744 mmHg 94%
15:00 +5°C° 0.9 mm 5 m/s 744 mmHg 94%
16:00 +3°C° 0.9 mm 5 m/s 744 mmHg 94%
17:00 +3°C° 0.9 mm 5 m/s 744 mmHg 94%
18:00 +2°C° 1.3 mm 5 m/s 744 mmHg 94%
19:00 +2°C° 1.3 mm 5 m/s 744 mmHg 95%
20:00 +3°C° 1.3 mm 4 m/s 744 mmHg 95%
21:00 +1°C° 1.2 mm 4 m/s 744 mmHg 95%
22:00 +1°C° 1.2 mm 4 m/s 744 mmHg 96%
23:00 +1°C° 1.2 mm 4 m/s 744 mmHg 96%

14 Aprilie, Miercuri

Timp Temperatura Precipitaţii Vânt Presiune Umiditate
00:00 +1°C° 0.7 mm 4 m/s 743 mmHg 96%
01:00 +1°C° 0.7 mm 4 m/s 743 mmHg 96%
02:00 0°C° 0.7 mm 4 m/s 742 mmHg 97%
03:00 0°C° 0.6 mm 4 m/s 742 mmHg 97%
04:00 0°C° 0.6 mm 4 m/s 742 mmHg 97%
05:00 0°C° 0.6 mm 4 m/s 741 mmHg 97%
06:00 0°C° 0.7 mm 4 m/s 741 mmHg 97%
07:00 0°C° 0.7 mm 4 m/s 741 mmHg 97%
08:00 0°C° 0.7 mm 4 m/s 741 mmHg 97%
09:00 0°C° 0.7 mm 4 m/s 741 mmHg 97%
10:00 0°C° 0.7 mm 4 m/s 741 mmHg 97%
11:00 0°C° 0.7 mm 4 m/s 740 mmHg 97%
12:00 +1°C° 0.6 mm 4 m/s 740 mmHg 97%
13:00 +1°C° 0.6 mm 4 m/s 740 mmHg 97%
14:00 +1°C° 0.6 mm 4 m/s 739 mmHg 97%
15:00 +3°C° 0.7 mm 4 m/s 739 mmHg 97%
16:00 +3°C° 0.7 mm 4 m/s 739 mmHg 97%
17:00 +3°C° 0.7 mm 4 m/s 739 mmHg 97%
18:00 +2°C° 0.5 mm 3 m/s 739 mmHg 97%
19:00 +2°C° 0.5 mm 3 m/s 739 mmHg 97%
20:00 +2°C° 0.5 mm 2 m/s 739 mmHg 98%
21:00 +2°C° 0.3 mm 2 m/s 739 mmHg 98%
22:00 +2°C° 0.3 mm 2 m/s 739 mmHg 98%
23:00 +2°C° 0.3 mm 2 m/s 740 mmHg 98%

15 Aprilie, Joi

Timp Temperatura Precipitaţii Vânt Presiune Umiditate
00:00 +1°C° 0.3 mm 3 m/s 740 mmHg 98%
01:00 0°C° 0.3 mm 3 m/s 740 mmHg 98%
02:00 0°C° 0.3 mm 3 m/s 740 mmHg 98%
03:00 0°C° 0.3 mm 3 m/s 740 mmHg 98%
04:00 0°C° 0.3 mm 3 m/s 741 mmHg 98%
05:00 0°C° 0.3 mm 3 m/s 741 mmHg 97%
06:00 0°C° 0.2 mm 3 m/s 741 mmHg 98%
07:00 0°C° 0.2 mm 3 m/s 742 mmHg 98%
08:00 0°C° 0.2 mm 3 m/s 742 mmHg 98%
09:00 0°C° 0.1 mm 3 m/s 742 mmHg 97%
10:00 +1°C° 0.1 mm 3 m/s 743 mmHg 97%
11:00 0°C° 0.1 mm 4 m/s 743 mmHg 96%
12:00 0°C° 0 mm 4 m/s 743 mmHg 96%
13:00 0°C° 0 mm 4 m/s 743 mmHg 96%
14:00 +1°C° 0 mm 4 m/s 744 mmHg 96%
15:00 0°C° 0.4 mm 4 m/s 744 mmHg 97%
16:00 +1°C° 0.4 mm 3 m/s 744 mmHg 97%
17:00 +1°C° 0.4 mm 3 m/s 744 mmHg 98%
18:00 +1°C° 0.2 mm 3 m/s 744 mmHg 98%
19:00 0°C° 0.2 mm 4 m/s 744 mmHg 98%
20:00 0°C° 0.2 mm 4 m/s 744 mmHg 98%
21:00 0°C° 0.4 mm 4 m/s 744 mmHg 98%
22:00 0°C° 0.4 mm 4 m/s 744 mmHg 98%
23:00 +1°C° 0.4 mm 4 m/s 744 mmHg 98%

16 Aprilie, Vineri

Timp Temperatura Precipitaţii Vânt Presiune Umiditate
00:00 +3°C° 0.7 mm 4 m/s 744 mmHg 97%
01:00 +3°C° 0.7 mm 5 m/s 744 mmHg 96%
02:00 +3°C° 0.7 mm 5 m/s 744 mmHg 95%
03:00 +3°C° 0 mm 5 m/s 745 mmHg 93%
04:00 +3°C° 0 mm 5 m/s 745 mmHg 91%
05:00 +3°C° 0 mm 5 m/s 745 mmHg 89%
06:00 +3°C° 0 mm 5 m/s 746 mmHg 86%
07:00 +3°C° 0 mm 5 m/s 747 mmHg 83%
08:00 +3°C° 0 mm 5 m/s 747 mmHg 81%
09:00 +4°C° 0 mm 6 m/s 748 mmHg 73%
10:00 +5°C° 0 mm 6 m/s 748 mmHg 66%
11:00 +7°C° 0 mm 6 m/s 748 mmHg 59%
12:00 +8°C° 0 mm 6 m/s 749 mmHg 54%
13:00 +9°C° 0 mm 6 m/s 749 mmHg 49%
14:00 +10°C° 0 mm 7 m/s 749 mmHg 45%
15:00 +10°C° 0 mm 6 m/s 749 mmHg 47%
16:00 +10°C° 0 mm 6 m/s 750 mmHg 49%
17:00 +9°C° 0 mm 6 m/s 750 mmHg 51%
18:00 +8°C° 0 mm 5 m/s 750 mmHg 55%
19:00 +6°C° 0 mm 4 m/s 751 mmHg 58%
20:00 +4°C° 0 mm 3 m/s 751 mmHg 62%
21:00 +4°C° 0 mm 4 m/s 752 mmHg 63%
22:00 +3°C° 0 mm 4 m/s 752 mmHg 63%
23:00 +3°C° 0 mm 4 m/s 752 mmHg 64%
Arată mai mult

Formular de consimțământ

Meteoprog și furnizorii noștri de servicii pot stoca și accesa date personale, precum cookies, identificatori de dispozitiv sau alte tehnologii similare pe dispozitivul dumneavoastră și procesa astfel de date pentru a personaliza conținutul și reclamele, dar și pentru a oferi caracteristici de social media și pentru a analiza traficul.

  • Stocarea și/sau accesarea informațiilor pe dispozitivul dumneavoastră

    Cookies, identificatori de dispozitiv sau alte informații pot fi stocate sau accesate pe dispozitiv în scopurile indicate mai sus.

  • Reclame și conținut personalizat, evaluarea reclamelor și a conținutului, informații despre audiențe și dezvoltarea produselor

    Reclamele și conținutul pot fi personalizate pe baza unui profil. Pot fi adăugate date suplimentare pentru a personaliza mai bine reclamele și conținutul. Performanța reclamelor și conținutului poate fi măsurată. Pot fi obținute informații despre utilizatorii care au văzut reclamele și conținutul. Aceste date pot fi utilizate pentru a dezvolta sau îmbunătăți experiența utilizatorilor, sistemele și software-ul.

Dând clic pe ‘Sunt de acord’, permiteți utilizarea cookie-urilor menționate, a identificatorilor de dispozitiv, balizelor web sau altor tehnologii similare. Setările pot fi modificate din browser-ul dispozitivului dumneavoastră.

În anumite scopuri, interesele legitime pot prima asupra consimțământului. Puteți citi mai multe informații în acest sens în Politica privind Confidențialitatea Datelor și Cookie.